Portage, MI

9:07 PM EST on February 06, 2016 (GMT -0500)
Kalamazoo-Battle Creek International

Weather History for KAZO - December, 2008

Change the Weather History Date:

Sunday, December 14, 2008

  Actual Average Record
Temperature  
Mean Temperature 42 °F 29 °F  
Max Temperature 48 °F 35 °F 62 °F (2015)
Min Temperature 37 °F 23 °F 1 °F (1958)
Degree Days  
Heating Degree Days 24 36  
Month to date heating degree days 472  
Since 1 July heating degree days 1799  
Cooling Degree Days 0 0  
Month to date cooling degree days 0  
Year to date cooling degree days 675  
Moisture  
Dew Point 34 °F    
Average Humidity 77    
Maximum Humidity 90    
Minimum Humidity 57    
Precipitation  
Precipitation 0.04 in 0.06 in 0.83 in (2011)
Month to date precipitation 1.03  
Year to date precipitation 34.79  
Snow  
Snow 0.00 in - - ()
Snow Depth 2.00 in    
Sea Level Pressure  
Sea Level Pressure 29.84 in    
Wind  
Wind Speed 18 mph (South)    
Max Wind Speed 23 mph    
Max Gust Speed 30 mph    
Visibility 8 miles    
Events Rain    
T = Trace of Precipitation, MM = Missing Value Source: NWS Daily Summary

Daily Weather History Graph

Daily Weather History Graph

Search for Another Location

Airport or City:

Trip Planner

Search our weather history database for the weather conditions in past years. The results will help you decide how hot, cold, wet, or windy it might be!

Date:

Astronomy

Dec. 14, 2008 Rise Set
Actual Time 8:03 AM EST 5:10 PM EST
Civil Twilight 7:31 AM EST 5:42 PM EST
Nautical Twilight 6:56 AM EST 6:17 PM EST
Astronomical Twilight 6:22 AM EST 6:51 PM EST
Moon 7:34 PM EST (12/14) 10:09 AM EST (12/14)
Length of Visible Light 10h 10m
Length of Day
9h 07m
Waning Gibbous, 94% of the Moon is Illuminated
Dec 14
Waning Gibbous
Dec 19
Last Quarter
Dec 27
New
Jan 4
First Quarter
Jan 10
Full

Hourly Weather History & Observations

Time (EST) Temp. Windchill Dew Point Humidity Pressure Visibility Wind Dir Wind Speed Gust Speed Precip Events Conditions
12:53 AM 37.0 °F 28.1 °F 27.0 °F 67% 29.92 in 10.0 mi South 15.0 mph 21.9 mph 0.02 in   Overcast
1:53 AM 37.0 °F 27.7 °F 26.1 °F 65% 29.91 in 10.0 mi South 16.1 mph 21.9 mph 0.00 in   Overcast
2:53 AM 39.0 °F 29.6 °F 25.0 °F 57% 29.91 in 10.0 mi South 18.4 mph 27.6 mph 0.00 in Rain Light Rain
3:53 AM 39.0 °F 28.8 °F 26.1 °F 60% 29.90 in 10.0 mi South 21.9 mph 28.8 mph 0.00 in   Overcast
4:53 AM 39.0 °F 29.3 °F 27.0 °F 62% 29.89 in 10.0 mi South 19.6 mph - N/A   Overcast
5:53 AM 39.0 °F 29.3 °F 27.0 °F 62% 29.89 in 10.0 mi South 19.6 mph 29.9 mph 0.00 in Rain Light Rain
6:53 AM 37.9 °F 28.2 °F 28.0 °F 68% 29.89 in 9.0 mi South 18.4 mph 27.6 mph 0.00 in Rain Light Rain
7:19 AM 37.4 °F 28.9 °F 28.4 °F 70% 29.87 in 10.0 mi South 13.8 mph 23.0 mph 0.00 in   Overcast
7:53 AM 37.9 °F 28.5 °F 28.9 °F 70% 29.90 in 10.0 mi South 17.3 mph 25.3 mph 0.00 in   Overcast
8:53 AM 37.0 °F 26.7 °F 30.9 °F 79% 29.91 in 10.0 mi South 19.6 mph 25.3 mph 0.00 in Rain Light Rain
9:53 AM 37.0 °F 28.1 °F 32.0 °F 82% 29.92 in 6.0 mi South 15.0 mph 27.6 mph 0.01 in Rain Light Rain
10:53 AM 37.0 °F 28.1 °F 33.1 °F 86% 29.91 in 6.0 mi South 15.0 mph - 0.01 in Rain Light Rain
11:53 AM 37.9 °F 28.9 °F 33.1 °F 83% 29.89 in 7.0 mi South 16.1 mph 24.2 mph 0.00 in   Overcast
12:53 PM 39.0 °F 29.6 °F 35.1 °F 86% 29.86 in 6.0 mi South 18.4 mph 28.8 mph N/A   Overcast
1:53 PM 39.0 °F 29.3 °F 35.1 °F 86% 29.83 in 7.0 mi South 19.6 mph 24.2 mph N/A   Overcast
2:32 PM 39.2 °F 29.8 °F 35.6 °F 87% 29.80 in 8.0 mi South 18.4 mph - N/A   Overcast
2:53 PM 39.9 °F 30.5 °F 35.1 °F 83% 29.82 in 9.0 mi South 19.6 mph - N/A   Overcast
3:53 PM 42.1 °F 33.3 °F 36.0 °F 79% 29.83 in 10.0 mi South 19.6 mph 26.5 mph N/A   Overcast
4:53 PM 43.0 °F 34.2 °F 37.0 °F 80% 29.82 in 10.0 mi South 20.7 mph 27.6 mph N/A   Overcast
5:53 PM 44.1 °F 35.7 °F 37.0 °F 76% 29.83 in 10.0 mi South 20.7 mph 29.9 mph N/A   Overcast
6:53 PM 44.1 °F 36.8 °F 37.9 °F 79% 29.81 in 10.0 mi South 16.1 mph 26.5 mph N/A   Overcast
7:53 PM 46.0 °F 38.8 °F 39.0 °F 76% 29.80 in 10.0 mi South 18.4 mph 26.5 mph N/A   Overcast
8:53 PM 46.9 °F - 41.0 °F 80% 29.77 in 10.0 mi South 18.4 mph 25.3 mph N/A   Overcast
9:53 PM 46.9 °F - 43.0 °F 86% 29.77 in 5.0 mi South 23.0 mph 27.6 mph 0.00 in   Overcast
10:22 PM 46.4 °F 39.5 °F 42.8 °F 87% 29.74 in 3.0 mi South 17.3 mph 26.5 mph 0.00 in Rain Light Rain
10:34 PM 46.4 °F 39.8 °F 42.8 °F 87% 29.73 in 4.0 mi South 16.1 mph - 0.00 in Rain Light Rain
10:53 PM 46.9 °F - 44.1 °F 90% 29.75 in 3.0 mi South 17.3 mph 27.6 mph 0.00 in Rain Light Rain
11:53 PM 48.9 °F - 45.0 °F 86% 29.74 in 6.0 mi South 20.7 mph 28.8 mph 0.00 in   Overcast